Regional Weather Roundup
Issued by NWS

Home | Current Version | Previous Version | Graphics & Text | Print | Product List | Glossary On
Versions: 1 2 3 4 5 6 7 8 9 10 11 12 13 14 15 16 17 18 19 20 21 22 23 24 25 26 27 28 29 30 31 32 33 34 35 36 37 38 39 40 41 42 43 44 45 46 47 48 49 50
000
ASUS43 KLMK 261210
RWRKY
KENTUCKY REGIONAL WEATHER ROUNDUP
NATIONAL WEATHER SERVICE LOUISVILLE KY
800 AM EDT SAT JUL 26 2014

NOTE "FAIR" INDICATES FEW OR NO CLOUDS BELOW 12,000 FEET
WITH NO SIGNIFICANT WEATHER AND/OR OBSTRUCTIONS TO VISIBILITY.

KYZ001>023-026-027-061>063-070>075-261300-
WESTERN AND SOUTH CENTRAL KENTUCKY

CITY           SKY/WX    TMP DP  RH WIND       PRES   REMARKS
PADUCAH        PTSUNNY   70  64  81 CALM      29.98R
HENDERSON      SUNNY     66  63  88 S6        29.95F
OWENSBORO      SUNNY     66  63  90 S5        29.97S
HOPKINSVILLE   SUNNY     69  67  92 S3        30.01R
BOWLING GREEN  SUNNY     69  62  78 S5        30.01S
GLASGOW        SUNNY     66  61  85 CALM      30.01S
$$

KYZ024-025-028>034-038-045-046-053-261300-
NORTH CENTRAL KENTUCKY

CITY           SKY/WX    TMP DP  RH WIND       PRES   REMARKS
LOUISVILLE/SDF MOSUNNY   69  61  75 SE6       29.97S
LOUISVILLE/LOU SUNNY     68  61  78 S3        29.98S
FORT KNOX      SUNNY     64  62  91 S2        29.98R
$$

KYZ035>037-039>044-047>052-055>060-089>105-261300-
NORTHEAST KENTUCKY

CITY           SKY/WX    TMP DP  RH WIND       PRES   REMARKS
LEXINGTON      SUNNY     67  61  81 S7        30.01F
COVINGTON      MOSUNNY   68  62  81 S7        29.97S
FRANKFORT      MOSUNNY   67  61  81 S7        29.99S
$$

KYZ054-064>069-076>088-106>120-261300-
SOUTHEAST KENTUCKY

CITY           SKY/WX    TMP DP  RH WIND       PRES   REMARKS
JACKSON        PTSUNNY   63  61  93 CALM      30.05S FOG
LONDON         SUNNY     64  61  90 SE3       30.06S
SOMERSET       SUNNY     64  64 100 CALM      30.05S
MIDDLESBORO    FOG       62  62 100 CALM      30.09S VSB 1/2
MONTICELLO     SUNNY     65  63  93 CALM      30.05S FOG
$$




USA.gov is the U.S. government's official web portal to all federal, state and local government web resources and services.